This is the latest recevied weather packets stored in our database for station/object KM4CBK. If no packets are shown the sender has not sent any weather packets the latest 10 day(s).
| Time | Temp. | Humidity | Pressure | Rain* | Wind** | Luminosity | Snow |
|---|---|---|---|---|---|---|---|
| 1777982787 | 11.67° C | 99% | 1014.1 hPa | 0 mm | - | 24 W/m² | - |
| 1777982484 | 11.67° C | 99% | 1013.8 hPa | 0 mm | - | 21 W/m² | - |
| 1777982178 | 11.67° C | 99% | 1013.7 hPa | 0 mm | - | 22 W/m² | - |
| 1777981876 | 11.11° C | 99% | 1013.5 hPa | 0 mm | - | 21 W/m² | - |
| 1777981572 | 10.56° C | 99% | 1013.3 hPa | 0 mm | - | 28 W/m² | - |
| 1777981269 | 10° C | 99% | 1013.2 hPa | 0 mm | - | 21 W/m² | - |
| 1777980965 | 10° C | 99% | 1013.2 hPa | 0 mm | - | 17 W/m² | - |
| 1777980662 | 10° C | 99% | 1013.1 hPa | 0 mm | - | 15 W/m² | - |
| 1777980358 | 10° C | 99% | 1012.9 hPa | 0 mm | - | 11 W/m² | - |
| 1777980056 | 10° C | 99% | 1012.9 hPa | 0 mm | - | 12 W/m² | - |
| 1777979749 | 9.44° C | 99% | 1012.9 hPa | 0 mm | - | 9 W/m² | - |
| 1777979446 | 9.44° C | 99% | 1012.6 hPa | 0 mm | - | 5 W/m² | - |
| 1777979137 | 9.44° C | 99% | 1012.6 hPa | 0 mm | - | 2 W/m² | - |
| 1777978834 | 9.44° C | 99% | 1012.7 hPa | 0 mm | - | 0 W/m² | - |
| 1777978531 | 9.44° C | 99% | 1012.5 hPa | 0 mm | - | 0 W/m² | - |
| 1777978226 | 10° C | 99% | 1012.5 hPa | 0 mm | - | 0 W/m² | - |
| 1777977924 | 9.44° C | 99% | 1012.6 hPa | 0 mm | - | 0 W/m² | - |
| 1777977621 | 10° C | 99% | 1012.2 hPa | 0 mm | - | 0 W/m² | - |
| 1777977318 | 10° C | 99% | 1012.3 hPa | 0 mm | - | 0 W/m² | - |
| 1777977015 | 10° C | 99% | 1012.5 hPa | 0 mm | - | 0 W/m² | - |
| 1777976712 | 10° C | 99% | 1012.3 hPa | 0 mm | - | 0 W/m² | - |
| 1777976410 | 10° C | 99% | 1012.5 hPa | 0 mm | - | 0 W/m² | - |
| 1777976108 | 10° C | 99% | 1012.6 hPa | 0 mm | - | 0 W/m² | - |
| 1777975804 | 10° C | 99% | 1012.7 hPa | 0 mm | - | 0 W/m² | - |
| 1777975501 | 10° C | 99% | 1012.5 hPa | 0 mm | - | 0 W/m² | - |
* Rain latest hour (hover to see other rain measurements)
** Current wind speed in m/s (hover to see current wind gust speed)